Regional Weather Roundup
Issued by NWS

Home | Current Version | Previous Version | Graphics & Text | Print | Product List | Glossary On
Versions: 1 2 3 4 5 6 7 8 9 10 11 12 13 14 15 16 17 18 19 20 21 22 23 24 25 26 27 28 29 30 31 32 33 34 35 36 37 38 39 40 41 42 43 44 45 46 47 48 49 50
867
ASUS43 KLSX 281157
RWRMO

WEATHER SUMMARY FOR MISSOURI
NATIONAL WEATHER SERVICE SPRINGFIELD MO
700 AM CDT SUN AUG 28 2016

NOTE: "FAIR" INDICATES FEW OR NO CLOUDS BELOW 12,000 FEET WITH NO
       SIGNIFICANT WEATHER AND/OR OBSTRUCTIONS TO VISIBILITY.
       CURRENT SKY AND/OR WEATHER CONDITIONS ARE NOT AVAILABLE FOR
       CHILLICOTHE AND FARMINGTON.

MOZ001>031-035>038-043-044-053-054-281300-
...NORTHERN AND WESTERN MISSOURI...

CITY           SKY/WX    TMP DP  RH WIND       PRES   REMARKS
KANSAS CTY INT CLEAR     70  67  90 S7        30.10R
6HR MIN TEMP:  70; 6HR MAX TEMP:  75;

LEE`S SUMMIT   CLEAR     73  70  90 S3        30.11R
6HR MIN TEMP:  73; 6HR MAX TEMP:  77;

ST JOSEPH      CLEAR     69  67  93 SE3       30.09R
6HR MIN TEMP:  67; 6HR MAX TEMP:  73;


$$
MOZ066>068-077>081-088>096-101>105-281300-
...SOUTHWEST MISSOURI...

CITY           SKY/WX    TMP DP  RH WIND       PRES   REMARKS
SPRINGFIELD    CLEAR     71  68  90 CALM      30.13R
6HR MIN TEMP:  71; 6HR MAX TEMP:  75;

JOPLIN         CLEAR     72  70  93 S3        30.12R
6HR MIN TEMP:  71; 6HR MAX TEMP:  76;


$$
MOZ032>034-039>042-045>050-055>058-069>072-281300-
...CENTRAL MISSOURI...

CITY           SKY/WX    TMP DP  RH WIND       PRES   REMARKS
COLUMBIA       NOT AVBL
JEFFERSON CITY CLEAR     72  71  97 CALM      30.12R
6HR MIN TEMP:  71; 6HR MAX TEMP:  75;

ROLLA          CLEAR     70  68  93 CALM      30.14R
6HR MIN TEMP:  69; 6HR MAX TEMP:  74;

SEDALIA        CLEAR     71  69  93 S6        30.13R
6HR MIN TEMP:  70; 6HR MAX TEMP:  74;


$$
MOZ051-052-059>065-281300-
...EAST CENTRAL MISSOURI...

CITY           SKY/WX    TMP DP  RH WIND       PRES   REMARKS
ST LOUIS INTL  MOCLDY    76  71  85 CALM      30.14R
6HR MIN TEMP:  74; 6HR MAX TEMP:  80;


$$
MOZ072>076-082>087-097>100-106>115-281300-
...SOUTH CENTRAL AND SOUTHEAST MISSOURI...

CITY           SKY/WX    TMP DP  RH WIND       PRES   REMARKS
CAPE GIRARDEAU PTCLDY    72  71  97 CALM      30.12R FOG
6HR MIN TEMP:  70; 6HR MAX TEMP:  74;

POPLAR BLUFF   CLEAR     71  70  96 CALM      30.11R FOG
6HR MIN TEMP:  71; 6HR MAX TEMP:  74;

WEST PLAINS    CLEAR     68  64  87 CALM      30.17R
6HR MIN TEMP:  67; 6HR MAX TEMP:  71;


$$



USA.gov is the U.S. government's official web portal to all federal, state and local government web resources and services.